Aberdeen, SD

5:23 AM CDT on September 26, 2017 (GMT -0500)
Aberdeen Regional

Weather History for KABR - November, 2013

Change the Weather History Date:

Wednesday, November 6, 2013

  Actual Average Record
Temperature  
Mean Temperature 28 °F 35 °F  
Max Temperature 41 °F 46 °F 79 °F (1904)
Min Temperature 14 °F 24 °F -8 °F (1991)
Degree Days  
Heating Degree Days 37 30  
Month to date heating degree days 185 174  
Since 1 July heating degree days 1045 1065  
Cooling Degree Days 0 0  
Month to date cooling degree days 0 0  
Year to date cooling degree days 580 525  
Moisture  
Dew Point 22 °F    
Average Humidity 80    
Maximum Humidity 100    
Minimum Humidity 59    
Precipitation  
Precipitation 0.00 in 0.03 in 0.70 in (1936)
Month to date precipitation T 0.18  
Year to date precipitation 20.92 20.65  
Snow  
Snow 0.00 in - - ()
Month to date snowfall 0.0  
Since 1 July snowfall 3.3  
Snow Depth 0.00 in    
Sea Level Pressure  
Sea Level Pressure 30.17 in    
Wind  
Wind Speed 7 mph (SW)    
Max Wind Speed 16 mph    
Max Gust Speed 22 mph    
Visibility 8 miles    
Events Fog    
T = Trace of Precipitation, MM = Missing Value Source: NWS Daily Summary

Daily Weather History Graph

Daily Weather History Graph

Search for Another Location

Airport or City:

Trip Planner

Search our weather history database for the weather conditions in past years. The results will help you decide how hot, cold, wet, or windy it might be!

Date:

Astronomy

Nov. 06, 2013 Rise Set
Actual Time 7:20 AM CST 5:13 PM CST
Civil Twilight 6:49 AM CST 5:44 PM CST
Nautical Twilight 6:13 AM CST 6:20 PM CST
Astronomical Twilight 5:39 AM CST 6:54 PM CST
Moon 10:40 AM CST (11/6) 8:15 PM CST (11/6)
Length of Visible Light 10h 55m
Length of Day
9h 53m
Waxing Crescent, 14% of the Moon is Illuminated
Nov 6
Waxing Crescent
Nov 9
First Quarter
Nov 17
Full
Nov 25
Last Quarter
Dec 2
New

Hourly Weather History & Observations

Time (CST) Temp. Windchill Dew Point Humidity Pressure Visibility Wind Dir Wind Speed Gust Speed Precip Events Conditions
12:53 AM 25.0 °F 20.7 °F 18.0 °F 75% 30.18 in 10.0 mi WNW 3.5 mph - N/A   Clear
1:53 AM 23.0 °F 17.0 °F 18.0 °F 81% 30.17 in 10.0 mi WNW 4.6 mph - N/A   Clear
2:53 AM 19.9 °F 13.4 °F 18.0 °F 92% 30.17 in 10.0 mi West 4.6 mph - N/A   Clear
3:53 AM 23.0 °F 15.8 °F 19.9 °F 88% 30.17 in 10.0 mi West 5.8 mph - N/A   Clear
4:53 AM 18.0 °F 12.7 °F 17.1 °F 96% 30.17 in 10.0 mi WSW 3.5 mph - N/A   Clear
5:53 AM 15.1 °F 6.4 °F 12.9 °F 91% 30.18 in 10.0 mi South 5.8 mph - N/A   Clear
6:53 AM 15.1 °F 7.7 °F 12.9 °F 91% 30.19 in 10.0 mi SSW 4.6 mph - N/A   Clear
7:53 AM 17.1 °F 11.7 °F 14.0 °F 88% 30.19 in 10.0 mi SSW 3.5 mph - N/A   Clear
8:53 AM 23.0 °F 13.9 °F 19.9 °F 88% 30.18 in 10.0 mi SW 8.1 mph - N/A   Overcast
9:04 AM 23.0 °F 13.1 °F 21.2 °F 93% 30.13 in 10.0 mi SSW 9.2 mph - N/A   Overcast
9:16 AM 21.2 °F 9.5 °F 21.2 °F 100% 30.13 in 3.0 mi SW 11.5 mph - N/A   Overcast
9:20 AM 21.2 °F 11.7 °F 21.2 °F 100% 30.13 in 1.8 mi SW 8.1 mph - N/A   Overcast
9:26 AM 21.2 °F 10.9 °F 21.2 °F 100% 30.13 in 0.8 mi SSW 9.2 mph - N/A   Overcast
9:53 AM 24.1 °F 14.4 °F 24.1 °F 100% 30.19 in 0.2 mi South 9.2 mph - N/A Fog Light Freezing Fog
10:08 AM 24.8 °F 16.9 °F 24.8 °F 100% 30.13 in 0.5 mi SSW 6.9 mph - N/A Fog Light Freezing Fog
10:30 AM 26.6 °F 16.2 °F 26.6 °F 100% 30.13 in 1.2 mi SSW 11.5 mph - N/A   Overcast
10:36 AM 26.6 °F 17.5 °F 26.6 °F 100% 30.13 in 2.0 mi SSW 9.2 mph - N/A   Overcast
10:45 AM 28.4 °F 19.1 °F 28.4 °F 100% 30.13 in 8.0 mi SSW 10.4 mph - N/A   Overcast
10:53 AM 28.9 °F 19.8 °F 28.0 °F 96% 30.18 in 10.0 mi SSW 10.4 mph - N/A   Overcast
11:22 AM 30.2 °F 20.2 °F 26.6 °F 86% 30.12 in 10.0 mi SSW 12.7 mph - N/A   Overcast
11:53 AM 32.0 °F 22.1 °F 27.0 °F 82% 30.17 in 10.0 mi SSW 13.8 mph - N/A   Overcast
12:53 PM 37.9 °F 30.5 °F 28.0 °F 68% 30.14 in 10.0 mi SSW 11.5 mph - N/A   Clear
1:53 PM 39.9 °F 32.1 °F 28.0 °F 63% 30.12 in 10.0 mi SSW 13.8 mph - N/A   Clear
2:53 PM 39.9 °F 32.1 °F 28.0 °F 63% 30.12 in 10.0 mi SSW 13.8 mph - N/A   Clear
3:53 PM 39.9 °F 32.9 °F 27.0 °F 60% 30.13 in 10.0 mi WSW 11.5 mph - N/A   Clear
4:53 PM 36.0 °F 30.3 °F 26.1 °F 67% 30.15 in 10.0 mi WSW 6.9 mph - N/A   Clear
5:53 PM 30.0 °F 23.2 °F 24.1 °F 79% 30.18 in 10.0 mi NW 6.9 mph - N/A   Clear
6:53 PM 26.1 °F 21.9 °F 21.0 °F 81% 30.20 in 10.0 mi West 3.5 mph - N/A   Clear
7:53 PM 23.0 °F 18.4 °F 19.9 °F 88% 30.21 in 10.0 mi West 3.5 mph - N/A   Clear
8:53 PM 19.9 °F 12.1 °F 19.0 °F 96% 30.21 in 10.0 mi SSE 5.8 mph - N/A   Clear
9:53 PM 19.9 °F 13.4 °F 18.0 °F 92% 30.23 in 10.0 mi SW 4.6 mph - N/A   Mostly Cloudy
10:53 PM 21.0 °F 14.6 °F 19.0 °F 92% 30.23 in 10.0 mi SW 4.6 mph - N/A   Mostly Cloudy
11:53 PM 18.0 °F 9.8 °F 16.0 °F 92% 30.25 in 10.0 mi WSW 5.8 mph - N/A   Clear